This is the latest recevied weather packets stored in our database for station/object NK7E-1. If no packets are shown the sender has not sent any weather packets the latest 10 day(s).
| Time | Temp. | Humidity | Pressure | Rain* | Wind** | Luminosity | Snow |
|---|---|---|---|---|---|---|---|
| 1777981199 | 15° C | 90% | 1012 hPa | 0.25 mm | - | - | - |
| 1777980599 | 15° C | 90% | 1012.1 hPa | 0.25 mm | - | - | - |
| 1777979998 | 15° C | 91% | 1012.5 hPa | 0.25 mm | - | - | - |
| 1777979399 | 15° C | 91% | 1012.6 hPa | 0.25 mm | - | - | - |
| 1777978801 | 14.44° C | 91% | 1012.4 hPa | 0 mm | - | - | - |
| 1777978199 | 14.44° C | 91% | 1012.7 hPa | 0 mm | - | - | - |
| 1777977599 | 14.44° C | 90% | 1012.7 hPa | 0 mm | - | - | - |
| 1777976999 | 14.44° C | 91% | 1013 hPa | 0 mm | - | - | - |
| 1777976399 | 14.44° C | 90% | 1012.5 hPa | 0.51 mm | - | - | - |
| 1777975799 | 14.44° C | 90% | 1013.3 hPa | 0.51 mm | - | - | - |
| 1777975201 | 14.44° C | 90% | 1013.6 hPa | 0.76 mm | - | - | - |
| 1777974599 | 14.44° C | 90% | 1013.6 hPa | 0.76 mm | - | - | - |
| 1777974000 | 14.44° C | 90% | 1013.5 hPa | 1.02 mm | - | - | - |
| 1777973399 | 14.44° C | 90% | 1013.7 hPa | 1.02 mm | - | - | - |
| 1777972799 | 14.44° C | 91% | 1013.9 hPa | 0.51 mm | - | - | - |
| 1777972199 | 14.44° C | 91% | 1014 hPa | 0.76 mm | - | - | - |
| 1777971599 | 15° C | 91% | 1014 hPa | 0.51 mm | - | - | - |
| 1777971000 | 15° C | 91% | 1014.2 hPa | 0.76 mm | - | - | - |
| 1777970401 | 15° C | 91% | 1014.4 hPa | 0.76 mm | - | - | - |
| 1777969799 | 15° C | 91% | 1014.7 hPa | 1.02 mm | - | - | - |
| 1777969199 | 15° C | 91% | 1015.4 hPa | 1.27 mm | - | - | - |
| 1777968599 | 15° C | 91% | 1015.6 hPa | 1.52 mm | - | - | - |
| 1777968001 | 15° C | 91% | 1015.7 hPa | 1.78 mm | - | - | - |
| 1777967402 | 15° C | 91% | 1016 hPa | 1.78 mm | - | - | - |
| 1777966801 | 15° C | 91% | 1016.2 hPa | 2.03 mm | - | - | - |
* Rain latest hour (hover to see other rain measurements)
** Current wind speed in m/s (hover to see current wind gust speed)